Regional Weather Roundup
Issued by NWS

Home | Current Version | Previous Version | Text Only | Print | Product List | Glossary Off
Versions: 1 2 3 4 5 6 7 8 9 10 11 12 13 14 15 16 17 18 19 20 21 22 23 24 25 26 27 28 29 30 31 32 33 34 35 36 37 38 39 40 41 42 43 44 45 46 47 48 49 50

322
ASUS43 KDTX 061110
RWRMI
MICHIGAN HOURLY REGIONAL WEATHER ROUNDUP
NATIONAL WEATHER SERVICE DETROIT/PONTIAC MI
600 AM EST SAT FEB 06 2016

NOTE: "FAIR" INDICATES FEW OR NO CLOUDS BELOW 12,000 FEET WITH NO
SIGNIFICANT WEATHER AND/OR OBSTRUCTION TO VISIBILITY.

MIZ047>049-052>055-059>063-066>070-074>076-081>083-061200-
SOUTHEAST LOWER MICHIGAN

CITY           SKY/WX    TMP DP  RH WIND       PRES   REMARKS
ADRIAN         CLEAR     32  21  64 W5        30.28F WCI  27
ALMA           MOCLDY    24  20  87 SW3       30.24S
ANN ARBOR      CLEAR     21  19  92 SW3       30.27R
BAD AXE        PTCLDY    24  20  84 SW6       30.22S WCI  17
CARO           CLEAR     22  18  87 SW5       30.23S WCI  15
DETROIT CITY   CLEAR     26  17  68 W7        30.28R WCI  18
DETROIT        CLEAR     25  19  78 SW8       30.29R WCI  16
FLINT          CLOUDY    26  18  71 SW7       30.25S WCI  18
GROSSE ILE     CLEAR     27  21  80 CALM      30.27S
HILLSDALE      CLEAR     23  22  95 SW3       30.26R FOG
HOWELL         PTCLDY    23  20  91 SW5       30.25S WCI  16

CITY           SKY/WX    TMP DP  RH WIND       PRES   REMARKS
JACKSON        CLEAR     23  19  85 SW6       30.26R WCI  16
LAMBERTVILLE   CLEAR     25  21  85 W3        30.29S
LANSING        CLOUDY    23  19  85 SW8       30.26S WCI  14
LAPEER         FAIR      23  19  85 W5        30.24S WCI  17
MASON          PTCLDY    23  20  89 SW5       30.26R WCI  17
MONROE         CLEAR     26  22  84 W6        30.29R WCI  20
MT. CLEMENS    CLEAR     26  19  74 W8        30.25R WCI  17
PONTIAC        CLEAR     22  17  81 W7        30.24R WCI  13
PORT HOPE        N/A     25  20  81 SW7       30.19F WCI  17
PORT HURON     CLEAR     27  21  80 CALM      30.25S
TRI CITIES     CLOUDY    25  17  72 SW8       30.24S WCI  16
MIDLAND        CLOUDY    25  18  74 SW6       30.22S WCI  18
TROY           CLEAR     26  20  78 SW6       30.28S WCI  20
SAGINAW HB     PTCLDY    27  21  80 SW7       30.24S WCI  19
$$
MIZ043>046-050>051-056>058-064>065-071>073-077>080-061200-
SOUTHWEST LOWER MICHIGAN

CITY           SKY/WX    TMP DP  RH WIND       PRES   REMARKS
BATTLE CREEK   MOCLDY    23  20  88 SW6       30.27R FOG     WCI  16
BENTON HARBOR  CLOUDY    26  23  88 SW5       30.29R FOG     WCI  20
BIG RAPIDS     CLOUDY    28  21  77 SW7       30.19S WCI  20
COLDWATER      CLEAR     22  21  98 SW3       30.27S FOG
FREMONT        CLOUDY    25  20  83 S3        30.22S
HOLLAND        CLOUDY    31  25  78 W13       30.26S WCI  21
GRAND RAPIDS   CLOUDY    26  22  84 SW6       30.25S WCI  19
IONIA          CLOUDY    24  21  89 SW6       30.24S WCI  17
KALAMAZOO      CLOUDY    23  19  85 SW6       30.28R FOG     WCI  16
LUDINGTON      CLOUDY    32  21  64 W13G18    30.19F WCI  22
MARSHALL       MOCLDY    23  21  91 SW6       30.27R WCI  16
MOUNT PLEASANT CLOUDY    26  18  71 SW6       30.21S WCI  20
MUSKEGON       CLOUDY    33  23  66 SW9       30.24S WCI  25
SOUTH HAVEN    CLOUDY    27  25  94 SW6       30.28R FOG     WCI  20
$$
MIZ016>042-061200-
NORTHERN LOWER MICHIGAN

CITY           SKY/WX    TMP DP  RH WIND       PRES   REMARKS
ALPENA         CLOUDY    23  16  74 S7        30.14F WCI  15
BEAVER ISLAND  LGT SNOW  29  25  85 W22G28    30.08F WCI  15
BELLAIRE       CLOUDY    26  20  77 S3        30.15S
CADILLAC       CLOUDY    23  19  84 SW6       30.13F WCI  15
CHARLEVOIX     FLURRIES  30  23  74 SW18G26   30.14S WCI  18
FRANKFORT      CLOUDY    31  22  69 W12G22    30.15F WCI  22
GAYLORD        CLOUDY    24  18  77 SW13      30.09F WCI  12
GRAYLING       CLOUDY    23  18  81 SW7       30.14S WCI  14
HARBOR SPRINGS CLOUDY    26  22  82 SW9G16    30.10S WCI  17
HOUGHTON LAKE  CLOUDY    22  16  78 SW6       30.15F WCI  14
MANISTEE       CLOUDY    30  18  59 W16       30.18F WCI  19
OSCODA         CLOUDY    23  18  81 SW9       30.18S WCI  13
PELLSTON       LGT SNOW  27  21  78 SW8       30.09F WCI  19
ROGERS CITY    CLOUDY    24  18  75 SW9       30.11F WCI  15
TRAVERSE CITY  CLOUDY    29  17  61 SW5       30.14F WCI  24
$$
MIZ007>008-015-061200-
EASTERN UPPER MICHIGAN

CITY           SKY/WX    TMP DP  RH WIND       PRES   REMARKS
KINROSS        CLOUDY    27  27 100 W12G17    30.03F WCI  16
MACKINAC ISLAN LGT SNOW  28  24  87 SW20G29   30.06S WCI  14
NEWBERRY       CLOUDY    23  20  87 SW12      30.03F WCI  12
S. S. MARIE    LGT SNOW  25  22  88 SW14      30.03S FOG     WCI  13
MUNISING         N/A     25  16  68 SW8       30.05S WCI  16
$$
MIZ004>006-011>014-085-061200-
CENTRAL UPPER MICHIGAN

CITY           SKY/WX    TMP DP  RH WIND       PRES   REMARKS
MANISTIQUE     CLOUDY    25  18  74 W6        30.07S WCI  18
ESCANABA       CLOUDY    25  18  74 SW7       30.09S WCI  17
MENOMINEE      CLOUDY    25  18  74 W6        30.12S WCI  18
SAWYER-GWINN   CLOUDY    22  17  82 W8        30.02F WCI  13
$$
MIZ001>003-009>011-084-061200-
WESTERN UPPER MICHIGAN

CITY           SKY/WX    TMP DP  RH WIND       PRES   REMARKS
IRON MOUNTAIN  CLOUDY    23  16  74 W8        30.05F WCI  14
HOUGHTON       CLOUDY    25  18  74 W16       29.99S WCI  12
COPPER HARBOR    N/A     30  22  72 N15       29.99F WCI  19
IRONWOOD       CLOUDY    21  19  93 SW8       30.02F WCI  12
$$

ABBREVIATIONS USED IN REMARKS
   TC - TEMPERATURE IN CELSIUS
  WCI - WIND CHILL INDEX
   HX - HEAT INDEX
  VSB - VISIBILITY





USA.gov is the U.S. government's official web portal to all federal, state and local government web resources and services.